Other Public Products
Issued by NWS Grand Forks, ND

Home | Current Version | Previous Version | Graphics & Text | Print | Product List | Glossary On
Versions: 1 2 3 4 5 6 7 8 9 10 11 12 13 14 15 16 17 18 19 20 21 22 23 24 25 26 27 28 29 30 31 32 33 34 35 36 37 38 39 40 41 42 43 44 45 46 47 48 49 50
815
FPUS83 KFGF 232310
OPUFGF
PRAIRIE TO PINES WEATHER ROUNDUP
NATIONAL WEATHER SERVICE EASTERN NORTH DAKOTA/GRAND FORKS ND
600 PM CDT SUN APR 23 2017

 **SATELLITE DATA USED TO AUGMENT SKY COVER AT AUTOMATED STATIONS**
 *****  WEATHER ACROSS EASTERN NORTH DAKOTA  *****

CITY           SKY/WX    TMP DP  RH WIND       PRES   REMARKS
GRAND FORKS    PTSUNNY   33  29  85 E17       30.07F WCI  22
GRAND FORKS AF MIX PCPN  32  28  86 E14       30.07F FOG     WCI  22
GRAND CITY NWS NOT AVBL
BUXTON         NOT AVBL
DEVILS LAKE    LGT SNOW  28  26  92 E18       30.02F VSB 3/4 WCI  15
FARGO          PTSUNNY   42  33  70 NE25G31   29.95F
WAHPETON ARPT  FAIR      50  37  62 E18G24    29.87F
$$

 *****  WEATHER ACROSS CENTRAL AND WESTERN NORTH DAKOTA  *****

CITY           SKY/WX    TMP DP  RH WIND       PRES   REMARKS
JAMESTOWN      CLOUDY    34  30  85 E22G31    29.91F WCI  22
BISMARCK       CLOUDY    40  33  76 E21       29.88S
MINOT          CLOUDY    31  26  82 E20G28    29.97F WCI  19
MINOT AFB      CLOUDY    31  28  90 E21       29.96F WCI  18
GARRISON         N/A     30  28  92 E22G29    29.92F WCI  17
WILLISTON      CLOUDY    34  28  79 E18G25    29.90F WCI  23
DICKINSON      CLOUDY    38  32  79 E14       29.79F
HETTINGER      PTSUNNY   46  36  68 NE15      29.77F
$$

 *****  OTHER OBSERVATIONS NORTHEAST NORTH DAKOTA  *****

CITY           SKY/WX    TMP DP  RH WIND       PRES   REMARKS
WALHALLA       NOT AVBL
LANGDON        FAIR      37  18  44 E18       30.03F
CAVALIER       FAIR      37  18  44 E10G17    30.08F
GRAFTON        FAIR      34  25  69 E8        30.10F
CANDO          NOT AVBL
FORT TOTTEN      N/A     28  28 100 E10       29.95S WCI  19
ROLLA          FAIR      36  16  44 E21       30.01F
RUGBY          NOT AVBL
 ***** THE ABOVE OBSERVATIONS ARE NON NWS ARE NOT QUALITY
        CONTROLLED AND MAY MIS-REPORT RAIN FOR SNOW...
$$

 *****  OTHER OBSERVATIONS SOUTHEAST NORTH DAKOTA *****

CITY           SKY/WX    TMP DP  RH WIND       PRES   REMARKS
COOPERSTOWN    CLOUDY    30  28  93 NE28G35   29.97F WCI  16
VALLEY CITY    FLURRIES  34  32  93 NE16G31   29.95F WCI  23
OAKES          NOT AVBL
GWINNER        CLEAR     52  41  66 MISG      29.85F
SHEYENNE NWR     N/A     48  37  64 E15       29.95S
BUFFALO        NOT AVBL
WYNDMERE         N/A     54  41  62 E18         N/A
 ***** THE ABOVE OBSERVATIONS ARE NON NWS ARE NOT QUALITY
       CONTROLLED AND MAY MIS-REPORT RAIN FOR SNOW...
$$

  *****  WEATHER ACROSS NORTHERN MINNESOTA  *****

CITY           SKY/WX    TMP DP  RH WIND       PRES   REMARKS
FLAG ISLAND    FAIR      36  12  38 N7        30.12F
WARROAD        FAIR      36  18  48 NE9       30.12F
ROSEAU         FAIR      37  18  44 E14       30.11F
HALLOCK        FAIR      39   9  28 E14       30.09F
THF RVR FALLS  LGT SNOW  30  27  86 E17       30.08F FOG     WCI  18
HALSTAD          N/A     36  30  79 E23         N/A
FOSSTON        CLOUDY    34  27  75 NE13G18   30.04F WCI  25
BAUDETTE       CLOUDY    38  12  34 E10       30.10F
WASKISH        LGT SNOW  32  28  86 E6        30.11S VSB 1
CROOKSTON      CLOUDY    32  30  93 E18       30.06F WCI  20
$$
  *****  WEATHER ACROSS CENTRAL AND WEST MINNESOTA  *****

CITY           SKY/WX    TMP DP  RH WIND       PRES   REMARKS
BEMIDJI        CLOUDY    32  28  86 E14       30.06F WCI  22
PARK RAPIDS    CLOUDY    36  29  75 E12G21    30.00F
WADENA         FAIR      43  34  70 E16       29.95F
DETROIT LAKES  CLOUDY    37  32  81 E14G25    29.96F
MOORHEAD       FAIR      43  34  70 NE21G28   29.95F
FERGUS FALLS   FAIR      48  36  61 E21G31    29.88F
ELBOW LAKE     FAIR      54  41  61 E17G26    29.86F
MORRIS MN      FAIR      64  45  48 E20G25    29.81F
STAPLES        FAIR      45  34  65 NE14      29.97F
WHEATON        FAIR      64  43  45 E21G26    29.82F
$$
  *****  WEATHER ELSEWHERE ACROSS MINNESOTA  *****

CITY           SKY/WX    TMP DP  RH WIND       PRES   REMARKS
DULUTH         CLOUDY    34  28  79 E12       30.09S
INTRNTL FALLS  CLOUDY    37  12  35 E9        30.11F
ELY            FAIR      36  21  55 SE3       30.11R
CLOQUET        CLOUDY    36  25  64 E9G21     30.08S
BRAINERD       FAIR      43  34  70 NE16G23   30.00F
HIBBING        CLOUDY    34  29  82 E9        30.09F
ALEXANDRIA     FAIR      55  40  56 E22G28    29.89F
SAINT CLOUD    FAIR      53  40  61 E14G22    29.91F
MINNEAPOLIS    CLOUDY    69  33  26 VRB3      29.89F
$$

  *****  WEATHER ACROSS SOUTH DAKOTA  *****

CITY           SKY/WX    TMP DP  RH WIND       PRES   REMARKS
SIOUX FALLS    PTSUNNY   71  32  23 S24G35    29.81F
BROOKINGS      FAIR      70  30  22 S21G31    29.80F
WATERTOWN      FAIR      69  30  23 SW22G29   29.78F
HURON          FAIR      73  30  20 S18G31    29.73F
SISSETON         N/A     68  42  38 SE9       29.78F
ABERDEEN       FAIR      71  31  22 S9        29.73F
MITCHELL       FAIR      74  27  17 S20G37    29.76F
PIERRE         FAIR      76  35  22 SW12      29.63F
MOBRIDGE       FAIR      64  41  42 NE29G35   29.66F
RAPID CITY     FAIR      71  41  33 N10       29.65F
$$

  *****  SOME WEATHER IN NEARBY STATES *****

CITY           SKY/WX    TMP DP  RH WIND       PRES   REMARKS
GLASGOW MT     CLOUDY    43  31  62 E20       29.76F
GREAT FALLS MT CLOUDY    51  42  71 CALM      29.70F
CHEYENNE WY    FAIR      62  26  25 S15       29.77F
SCOTTSBLUFF NE FAIR      76  26  15 SE15      29.68F
OMAHA NE       PTSUNNY   72  27  18 S18       29.93F
DES MOINES IA  CLOUDY    70  29  21 S12       29.99F
DAVENPORT IA   FAIR      71  29  21 VRB7      30.02S
CHICAGO IL     FAIR      68  30  24 E13       30.03S
EAU CLAIRE WI  FAIR      67  40  37 E5        29.94F
LA CROSSE WI   FAIR      73  30  20 SW7       29.96S
$$

  *****  SOME NATIONAL WEATHER *****

CITY           SKY/WX    TMP DP  RH WIND       PRES   REMARKS
LA GUARDIA NY  MOCLDY    55  41  59 S14       30.08S
RALEIGH NC     LGT RAIN  53  51  93 VRB7G20   30.01R FOG
ATLANTA GA     PTSUNNY   64  59  83 NW7       29.76S
NEW ORLEANS LA CLOUDY    64  50  60 NW17G24   29.90R
OKLAHOMA CITY  FAIR      70  34  26 CALM      30.04F
ALBUQUERQUE NM FAIR      75  30  19 S17G25    29.93F
SALT LAKE CITY CLOUDY    65  38  36 NW16G22   29.77S
LOS ANGELES CA FAIR      67  55  65 W20       29.84F
BOISE ID       FAIR      63  35  35 SW7       29.77F
SEATTLE WA     LGT RAIN  50  46  86 S14       29.85S
$$

*** WEATHER ACROSS MANITOBA...SASKATCHEWAN AND ONTARIO ***
                ***ONTARIO***

CITY           SKY/WX    TMP DP  RH WIND       PRES   REMARKS
GERALDTON      MOSUNNY   32   7  34 NW5       30.15S
THUNDER BAY    PTSUNNY   36  21  55 SE9       30.18R
SIOUX LOOKOUT  PTSUNNY   36   7  30 N5        30.13F
TORONTO        MOSUNNY   66  32  28 W12G21    30.01R
BIG TROUT LK   CLOUDY    18   3  53 N9G17     30.23S WCI   6
PICKLE LAKE    MOSUNNY   30   3  31 W5        30.14F
DRYDEN         SUNNY     36   9  32 E9        30.12S
KENORA         PTSUNNY   36   5  27 E7        30.13S
$$
                *** MANITOBA***

CITY           SKY/WX    TMP DP  RH WIND       PRES   REMARKS
BRANDON        CLOUDY    39  19  45 E17G24    30.04F
DAUPHIN        SUNNY     41  19  42 E16       30.08F
ISLAND LAKE    MOSUNNY   27   1  33 NW7       30.21S WCI  19
PILOT MOUND      N/A     37  14  38 E14G22      N/A
THE PAS        MOSUNNY   32   7  34 NE8       30.16F WCI  25
THOMPSON       MOSUNNY   21  -4  33 N7        30.24S WCI  13
WINNIPEG       PTSUNNY   39  19  45 NE16      30.12F
LYNN LAKE      SUNNY     21   0  39 NE7       30.19F WCI  13
CHURCHILL      MOSUNNY    1  -6  71 N14       30.38S WCI -17
GILLAM         MOSUNNY   18  -2  41 N7        30.30S WCI   8
$$
                ***SASKATCHEWAN***

CITY           SKY/WX    TMP DP  RH WIND       PRES   REMARKS
ESTEVAN        FLURRIES  34  27  75 E20G26    29.95F WCI  22
KINDERSLEY     CLOUDY    34  32  93 SE17G26   29.78F WCI  23
LLOYDMINSTER   LGT SNOW  32  32 100 E16G23    29.87S WCI  21
PRINCE ALBERT  CLOUDY    41  19  42 E9        29.99F
REGINA         PTSUNNY   39  14  35 SE25G31   29.91F
YORKTON        SUNNY     43  16  33 SE16G22   29.99F



USA.gov is the U.S. government's official web portal to all federal, state and local government web resources and services.